Regional Weather Roundup
Issued by NWS

Home | Current Version | Previous Version | Graphics & Text | Print | Product List | Glossary On
Versions: 1 2 3 4 5 6 7 8 9 10 11 12 13 14 15 16 17 18 19 20 21 22 23 24 25 26 27 28 29 30 31 32 33 34 35 36 37 38 39 40 41 42 43 44 45 46 47 48 49 50
000
ASUS43 KIND 232009
RWRIN

WEATHER ROUNDUP FOR INDIANA
NATIONAL WEATHER SERVICE INDIANAPOLIS IN
400 PM EDT WED MAY 23 2018

NOTE: "FAIR" INDICATES FEW OR NO CLOUDS BELOW 12,000 FEET WITH NO
SIGNIFICANT WEATHER AND/OR OBSTRUCTIONS TO VISIBILITY.

* - STATION DOES NOT REPORT WEATHER SUCH AS PRECIPITATION OR FOG.

+ - STATION NOT QUALITY CONTROLLED BY THE NATIONAL WEATHER SERVICE.
    USE DATA WITH CAUTION...ESPECIALLY DEWPOINT AND RELATIVE
    HUMIDITY OBSERVATIONS.

INZ001>003-010>013-019-020-232100-
NORTHWEST INDIANA

CITY           SKY/WX    TMP DP  RH WIND       PRES   REMARKS
GARY /AIRPORT/ MOSUNNY   72  57  60 NE8       30.20F
KNOX *+        FAIR      77  55  47 E3        30.18F
LA PORTE +     FAIR      75  59  57 N6        30.20S
MICHIGAN CITY+ FAIR      70  52  52 NW5       30.21F
MONTICELLO +   FAIR      80  47  30 N5        30.17S
RENSSELAER +   FAIR      81  36  19 E7        30.17F
VALPARAISO     FAIR      80  61  52 NE7       30.19F

$$

LMZ046-743>745-232100-
SOUTHERN LAKE MICHIGAN

STATION/POSITION TIME  TEMP    WIND        PRES    WAVE
                       AIR SEA DIR/SP/G            HT
                 (UTC) (F)     (DEG/KT/KT) (MB)    (FT)
BURNS HARBOR     1940   59      CALM  /  5 1023.4F
MICHIGAN CITY    1940   54      40/  8/  8   N/A
5NW MICH CITY    2000   54 57   70/  4/  6   N/A     1

$$

INZ004-005-014>016-021>024-232100-
NORTH CENTRAL INDIANA

CITY           SKY/WX    TMP DP  RH WIND       PRES   REMARKS
ELKHART        FAIR      81  50  34 CALM      30.18F
GOSHEN         FAIR      78  58  49 MISG      30.18F
LOGANSPORT +   FAIR      79  50  36 NE6       30.19S
PERU/GRISSOM   FAIR      79  55  43 CALM      30.18S
ROCHESTER +    FAIR      81  52  36 N3        30.19S
SOUTH BEND     FAIR      78  55  44 N9        30.18F
WARSAW +       FAIR      77  54  44 N3        30.19F

$$

INZ006>009-017-018-025>027-232100-
NORTHEAST INDIANA

CITY           SKY/WX    TMP DP  RH WIND       PRES   REMARKS
ANGOLA *+      FAIR      75  55  50 VRB7      30.18F
AUBURN +       FAIR      77  55  47 CALM      30.19F
FORT WAYNE     FAIR      78  54  43 CALM      30.19S
HUNTINGTON +   FAIR      76  50  39 SE3       30.18F
KENDALLVILLE + FAIR      76  49  37 NE6       30.19F

$$

INZ028-029-035-036-043>045-051>053-232100-
WEST CENTRAL INDIANA

CITY           SKY/WX    TMP DP  RH WIND       PRES   REMARKS
CRAWFORDSVL +  FAIR      79  54  41 N8        30.16F
GREENCASTLE +  FAIR      81  52  36 N3        30.15F
LAFAYETTE      FAIR      79  54  41 E7        30.17S
TERRE HAUTE    FAIR      85  57  38 N12       30.13F

$$

INZ030>032-037>040-046>048-054>057-064-065-232100-
CENTRAL INDIANA

CITY           SKY/WX    TMP DP  RH WIND       PRES   REMARKS
ANDERSON       SUNNY     79  52  38 NE6       30.18
COLUMBUS       MOSUNNY   81  52  36 CALM      30.15F
FRANKFORT +    CLOUDY    83  53  35 E6        30.19F
GREENWOOD *+   FAIR      80  55  42 NE7       30.16F
INDIANAPOLIS   FAIR      81  54  39 NE8       30.15F
-EAGLE CREEK   FAIR      81  55  40 VRB6      30.15F
KOKOMO +       FAIR      80  53  39 N5        30.19S
MARION +       FAIR      77  53  42 E3        30.19S
MT COMFORT *+  FAIR      81  59  47 NE7       30.16F
SHELBYVILLE    FAIR      83  52  34 NE10      30.15S
ZIONSVILLE +     N/A     78  50  37 NE6       30.18S

$$

INZ033-034-041-042-049-050-058-059-232100-
EAST CENTRAL INDIANA

CITY           SKY/WX    TMP DP  RH WIND       PRES   REMARKS
MUNCIE         FAIR      80  51  36 NE6       30.17F
RICHMOND +     FAIR      73  55  53 NE10      30.18F

$$

INZ060-061-067>069-081>083-085>088-232100-
SOUTHWEST INDIANA

CITY           SKY/WX    TMP DP  RH WIND       PRES   REMARKS
EVANSVILLE     FAIR      84  61  45 N8        30.11F
HUNTINGBURG +  FAIR      83  62  49 N8        30.11F
WASHINGTON +   FAIR      84  55  37 NE6       30.11F

$$

INZ062-063-066-070>080-084-089>092-232100-
SOUTH CENTRAL AND SOUTHEAST INDIANA

CITY           SKY/WX    TMP DP  RH WIND       PRES   REMARKS
BATESVILLE +   SUNNY     77  59  53 VRB6G13   30.16S
BEDFORD +      FAIR      82  55  39 NE6       30.12F
BLOOMINGTON    FAIR      82  59  45 N7        30.14F
FRENCH LICK *+ FAIR      81  45  28 NE8       30.13F
MADISON *+     FAIR      81  55  41 NW6       30.15S
NORTH VERNON + FAIR      77  57  50 N5        30.14F

$$




USA.gov is the U.S. government's official web portal to all federal, state and local government web resources and services.